,,,PA_Meas_PMT16A,,PR_Meas_QMR101_102,,RH_Meas_QMH101,,SR_Meas_QMS101,,TA_Meas_QMH101,,GenWind,,GenWind,
date,time,status,PA,status,PR,status,RH,status,SR,status,TA,status,DirAvg,status,SpdAvg,
2012-01-17, 00:00:04,VALID,1001.71,VALID,0,VALID,72.6498,VALID,0,VALID,28.2029,VALID,278,VALID,1.78477,
2012-01-17, 00:01:04,VALID,1001.71,VALID,0,VALID,72.7337,VALID,0,VALID,28.2224,VALID,212,VALID,0.904688,
2012-01-17, 00:02:04,VALID,1001.7,VALID,0,VALID,73.0465,VALID,0,VALID,28.2029,VALID,249,VALID,1.44062,
2012-01-17, 00:03:04,VALID,1001.72,VALID,0,VALID,73.222,VALID,0,VALID,28.1834,VALID,231,VALID,1.06953,
2012-01-17, 00:04:04,VALID,1001.75,VALID,0,VALID,73.5272,VALID,0,VALID,28.1423,VALID,303,VALID,0.833203,
2012-01-17, 00:05:04,VALID,1001.71,VALID,0,VALID,73.0236,VALID,0,VALID,28.1423,VALID,235,VALID,0.941797,
2012-01-17, 00:06:04,VALID,1001.72,VALID,0,VALID,73.1991,VALID,0,VALID,28.1444,VALID,246,VALID,0.862109,
2012-01-17, 00:07:04,VALID,1001.7,VALID,0,VALID,73.2067,VALID,0,VALID,28.1249,VALID,290,VALID,1.29062,
2012-01-17, 00:08:04,VALID,1001.74,VALID,0,VALID,73.0084,VALID,0,VALID,28.1444,VALID,254,VALID,1.35742,
2012-01-17, 00:09:04,VALID,1001.69,VALID,0,VALID,73.2678,VALID,0,VALID,28.1639,VALID,288,VALID,0.733984,
2012-01-17, 00:10:04,VALID,1001.71,VALID,0,VALID,73.3288,VALID,0,VALID,28.1228,VALID,232,VALID,0.459375,
2012-01-17, 00:11:04,VALID,1001.71,VALID,0,VALID,73.4432,VALID,0,VALID,28.1444,VALID,223,VALID,0.682813,
2012-01-17, 00:12:04,VALID,1001.68,VALID,0,VALID,73.7026,VALID,0,VALID,28.0838,VALID,214,VALID,0.0710938,
2012-01-17, 00:13:04,VALID,1001.64,VALID,0,VALID,73.4432,VALID,0,VALID,28.0859,VALID,246,VALID,1.21953,
2012-01-17, 00:14:04,VALID,1001.63,VALID,0,VALID,73.7179,VALID,0,VALID,28.0643,VALID,249,VALID,1.22773,
2012-01-17, 00:15:04,VALID,1001.62,VALID,0,VALID,73.8247,VALID,0,VALID,28.047,VALID,261,VALID,0.310937,
2012-01-17, 00:16:04,VALID,1001.59,VALID,0,VALID,74.1756,VALID,0,VALID,28.0059,VALID,232,VALID,0.683203,
2012-01-17, 00:17:04,VALID,1001.58,VALID,0,VALID,74.3511,VALID,0,VALID,28.0275,VALID,252,VALID,0.335156,
2012-01-17, 00:18:04,VALID,1001.55,VALID,0,VALID,74.4808,VALID,0,VALID,28.008,VALID,303,VALID,0.500391,
2012-01-17, 00:19:04,VALID,1001.57,VALID,0,VALID,74.6257,VALID,0,VALID,27.969,VALID,229,VALID,0.328516,
2012-01-17, 00:20:04,VALID,1001.52,VALID,0,VALID,74.1909,VALID,0,VALID,27.9495,VALID,233,VALID,2.08867,
2012-01-17, 00:21:04,VALID,1001.56,VALID,0,VALID,74.4121,VALID,0,VALID,27.9495,VALID,249,VALID,0.933594,
2012-01-17, 00:22:04,VALID,1001.54,VALID,0,VALID,74.5494,VALID,0,VALID,27.9495,VALID,13,VALID,0.530078,
2012-01-17, 00:23:04,VALID,1001.52,VALID,0,VALID,74.4426,VALID,0,VALID,27.9105,VALID,297,VALID,0.544141,
2012-01-17, 00:24:04,VALID,1001.51,VALID,0,VALID,74.3358,VALID,0,VALID,27.85,VALID,278,VALID,0.539453,
2012-01-17, 00:25:04,VALID,1001.49,VALID,0,VALID,74.3511,VALID,0,VALID,27.8716,VALID,22,VALID,0.761719,
2012-01-17, 00:26:04,VALID,1001.5,VALID,0,VALID,74.0154,VALID,0,VALID,27.8326,VALID,234,VALID,1.3625,
2012-01-17, 00:27:04,VALID,1001.47,VALID,0,VALID,74.2061,VALID,0,VALID,27.8521,VALID,213,VALID,0.982813,
2012-01-17, 00:28:04,VALID,1001.49,VALID,0,VALID,74.1756,VALID,0,VALID,27.8716,VALID,276,VALID,1.03516,
2012-01-17, 00:29:04,VALID,1001.47,VALID,0,VALID,74.1146,VALID,0,VALID,27.85,VALID,276,VALID,0.755078,
2012-01-17, 00:30:04,VALID,1001.49,VALID,0,VALID,74.0841,VALID,0,VALID,27.8911,VALID,232,VALID,0.741406,
2012-01-17, 00:31:04,VALID,1001.48,VALID,0,VALID,74.1603,VALID,0,VALID,27.8911,VALID,272,VALID,0.723437,
2012-01-17, 00:32:04,VALID,1001.48,VALID,0,VALID,74.023,VALID,0,VALID,27.8911,VALID,284,VALID,0.531641,
2012-01-17, 00:33:04,VALID,1001.48,VALID,0,VALID,74.1985,VALID,0,VALID,27.9105,VALID,53,VALID,1.02031,
2012-01-17, 00:34:04,VALID,1001.49,VALID,0,VALID,74.229,VALID,0,VALID,27.9105,VALID,317,VALID,0.555078,
2012-01-17, 00:35:04,VALID,1001.5,VALID,0,VALID,74.3587,VALID,0,VALID,27.8911,VALID,202,VALID,0.673828,
2012-01-17, 00:36:04,VALID,1001.47,VALID,0,VALID,74.4045,VALID,0,VALID,27.8716,VALID,174,VALID,0.753125,
2012-01-17, 00:37:04,VALID,1001.49,VALID,0,VALID,74.4884,VALID,0,VALID,27.8305,VALID,268,VALID,0.34375,
2012-01-17, 00:38:04,VALID,1001.5,VALID,0,VALID,74.7401,VALID,0,VALID,27.8521,VALID,268,VALID,0.286328,
2012-01-17, 00:39:04,VALID,1001.48,VALID,0,VALID,74.6715,VALID,0,VALID,27.8326,VALID,321,VALID,0.776172,
2012-01-17, 00:40:04,VALID,1001.48,VALID,0,VALID,74.6562,VALID,0,VALID,27.8326,VALID,215,VALID,0.546484,
2012-01-17, 00:41:04,VALID,1001.46,VALID,0,VALID,74.8469,VALID,0,VALID,27.8521,VALID,213,VALID,0.466406,
2012-01-17, 00:42:04,VALID,1001.44,VALID,0,VALID,74.6638,VALID,0,VALID,27.8521,VALID,312,VALID,0.801562,
2012-01-17, 00:43:04,VALID,1001.45,VALID,0,VALID,74.5876,VALID,0,VALID,27.8521,VALID,246,VALID,0.908203,
2012-01-17, 00:44:04,VALID,1001.43,VALID,0,VALID,74.2748,VALID,0,VALID,27.9127,VALID,243,VALID,0.711719,
2012-01-17, 00:45:04,VALID,1001.44,VALID,0,VALID,73.9925,VALID,0,VALID,27.9105,VALID,289,VALID,0.674609,
2012-01-17, 00:46:04,VALID,1001.46,VALID,0,VALID,73.8781,VALID,0,VALID,27.9495,VALID,257,VALID,0.984375,
2012-01-17, 00:47:04,VALID,1001.44,VALID,0,VALID,73.9315,VALID,0,VALID,27.9474,VALID,285,VALID,0.526563,
2012-01-17, 00:48:04,VALID,1001.44,VALID,0,VALID,73.7179,VALID,0,VALID,27.9495,VALID,274,VALID,0.974219,
2012-01-17, 00:49:04,VALID,1001.4,VALID,0,VALID,73.3288,VALID,0,VALID,27.969,VALID,258,VALID,1.60195,
2012-01-17, 00:50:04,VALID,1001.39,VALID,0,VALID,73.0236,VALID,0,VALID,27.969,VALID,305,VALID,0.898047,
2012-01-17, 00:51:04,VALID,1001.39,VALID,0,VALID,72.6193,VALID,0,VALID,27.9669,VALID,272,VALID,0.670703,
2012-01-17, 00:52:04,VALID,1001.38,VALID,0,VALID,72.3904,VALID,0,VALID,27.9885,VALID,180,VALID,0.541406,
2012-01-17, 00:53:04,VALID,1001.35,VALID,0,VALID,72.1692,VALID,0,VALID,27.969,VALID,291,VALID,0.751953,
2012-01-17, 00:54:04,VALID,1001.34,VALID,0,VALID,72.3676,VALID,0,VALID,27.9495,VALID,278,VALID,0.827344,
2012-01-17, 00:55:04,VALID,1001.32,VALID,0,VALID,72.3142,VALID,0,VALID,27.93,VALID,259,VALID,0.683203,
2012-01-17, 00:56:04,VALID,1001.31,VALID,0,VALID,72.3599,VALID,0,VALID,27.8911,VALID,279,VALID,1.02344,
2012-01-17, 00:57:04,VALID,1001.28,VALID,0,VALID,72.5888,VALID,0,VALID,27.8889,VALID,205,VALID,0.597266,
2012-01-17, 00:58:04,VALID,1001.27,VALID,0,VALID,72.6727,VALID,0,VALID,27.9105,VALID,270,VALID,0.687891,
2012-01-17, 00:59:04,VALID,1001.26,VALID,0,VALID,72.7185,VALID,0,VALID,27.8911,VALID,241,VALID,0.477734,
2012-01-17, 01:00:04,VALID,1001.26,VALID,0,VALID,73.1533,VALID,0,VALID,27.9105,VALID,252,VALID,0.610156,
2012-01-17, 01:01:04,VALID,1001.25,VALID,0,VALID,72.8406,VALID,0,VALID,27.8911,VALID,274,VALID,1.73945,
2012-01-17, 01:02:04,VALID,1001.24,VALID,0,VALID,72.7795,VALID,0,VALID,27.9105,VALID,265,VALID,0.780469,
2012-01-17, 01:03:04,VALID,1001.25,VALID,0,VALID,72.7566,VALID,0,VALID,27.9105,VALID,275,VALID,0.776172,
2012-01-17, 01:04:04,VALID,1001.22,VALID,0,VALID,72.7414,VALID,0,VALID,27.8911,VALID,257,VALID,1.16914,
2012-01-17, 01:05:04,VALID,1001.19,VALID,0,VALID,72.7566,VALID,0,VALID,27.8911,VALID,316,VALID,0.803906,
2012-01-17, 01:06:04,VALID,1001.17,VALID,0,VALID,72.7032,VALID,0,VALID,27.8911,VALID,277,VALID,1.08164,
2012-01-17, 01:07:04,VALID,1001.17,VALID,0,VALID,72.7948,VALID,0,VALID,27.8911,VALID,292,VALID,0.497656,
2012-01-17, 01:08:04,VALID,1001.12,VALID,0,VALID,72.0014,VALID,0,VALID,27.8911,VALID,247,VALID,1.44453,
2012-01-17, 01:09:04,VALID,1001.13,VALID,0,VALID,72.0548,VALID,0,VALID,27.9105,VALID,255,VALID,0.652734,
2012-01-17, 01:10:04,VALID,1001.1,VALID,0,VALID,71.7572,VALID,0,VALID,27.8694,VALID,250,VALID,0.971094,
2012-01-17, 01:11:04,VALID,1001.12,VALID,0,VALID,72.0014,VALID,0,VALID,27.9105,VALID,247,VALID,0.964453,
2012-01-17, 01:12:04,VALID,1001.1,VALID,0,VALID,72.0624,VALID,0,VALID,27.8889,VALID,287,VALID,0.945703,
2012-01-17, 01:13:04,VALID,1001.15,VALID,0,VALID,71.9861,VALID,0,VALID,27.8889,VALID,289,VALID,1,
2012-01-17, 01:14:04,VALID,1001.1,VALID,0,VALID,72.0929,VALID,0,VALID,27.9105,VALID,211,VALID,1.1418,
2012-01-17, 01:15:04,VALID,1001.12,VALID,0,VALID,72.1997,VALID,0,VALID,27.93,VALID,268,VALID,0.857813,
2012-01-17, 01:16:04,VALID,1001.11,VALID,0,VALID,71.8335,VALID,0,VALID,27.93,VALID,284,VALID,1.82852,
2012-01-17, 01:17:04,VALID,1001.14,VALID,0,VALID,71.8335,VALID,0,VALID,27.9495,VALID,297,VALID,0.653516,
2012-01-17, 01:18:04,VALID,1001.13,VALID,0,VALID,71.7954,VALID,0,VALID,27.9495,VALID,295,VALID,1.09023,
2012-01-17, 01:19:04,VALID,1001.16,VALID,0,VALID,71.8259,VALID,0,VALID,27.969,VALID,284,VALID,1.13984,
2012-01-17, 01:20:04,VALID,1001.14,VALID,0,VALID,71.9251,VALID,0,VALID,27.9495,VALID,257,VALID,1.63828,
2012-01-17, 01:21:04,VALID,1001.15,VALID,0,VALID,71.3071,VALID,0,VALID,27.9495,VALID,277,VALID,1.84023,
2012-01-17, 01:22:04,VALID,1001.22,VALID,0,VALID,71.0783,VALID,0,VALID,27.9669,VALID,290,VALID,1.36328,
2012-01-17, 01:23:04,VALID,1001.21,VALID,0,VALID,70.8113,VALID,0.0815089,VALID,27.9864,VALID,299,VALID,1.62891,
2012-01-17, 01:24:04,VALID,1001.22,VALID,0,VALID,70.8418,VALID,0,VALID,28.0275,VALID,254,VALID,1.69453,
2012-01-17, 01:25:04,VALID,1001.26,VALID,0,VALID,70.8952,VALID,0,VALID,28.0275,VALID,269,VALID,1.60586,
2012-01-17, 01:26:04,VALID,1001.25,VALID,0,VALID,70.4603,VALID,0,VALID,28.047,VALID,285,VALID,1.43203,
2012-01-17, 01:27:04,VALID,1001.31,VALID,0,VALID,70.8494,VALID,0,VALID,28.0665,VALID,250,VALID,0.483984,
2012-01-17, 01:28:04,VALID,1001.29,VALID,0,VALID,71.0249,VALID,0,VALID,28.0254,VALID,211,VALID,0.467578,
2012-01-17, 01:29:04,VALID,1001.32,VALID,0,VALID,70.4832,VALID,0,VALID,28.0275,VALID,246,VALID,1.00547,
2012-01-17, 01:30:04,VALID,1001.32,VALID,0,VALID,71.0173,VALID,0,VALID,28.047,VALID,288,VALID,0.462109,
2012-01-17, 01:31:04,VALID,1001.37,VALID,0,VALID,70.9638,VALID,0,VALID,28.0275,VALID,290,VALID,0.869141,
2012-01-17, 01:32:04,VALID,1001.31,VALID,0,VALID,71.0554,VALID,0,VALID,27.9885,VALID,304,VALID,1.29492,
2012-01-17, 01:33:04,VALID,1001.3,VALID,0,VALID,71.5436,VALID,0,VALID,27.969,VALID,313,VALID,0.782031,
2012-01-17, 01:34:04,VALID,1001.3,VALID,0,VALID,71.7267,VALID,0,VALID,27.9495,VALID,277,VALID,0.731641,
2012-01-17, 01:35:04,VALID,1001.25,VALID,0,VALID,71.3453,VALID,0,VALID,27.9105,VALID,286,VALID,1.54609,
2012-01-17, 01:36:04,VALID,1001.27,VALID,0,VALID,71.1088,VALID,0,VALID,27.93,VALID,284,VALID,0.875391,
2012-01-17, 01:37:04,VALID,1001.25,VALID,0,VALID,70.9333,VALID,0,VALID,27.9474,VALID,254,VALID,0.9125,
2012-01-17, 01:38:04,VALID,1001.24,VALID,0,VALID,70.6968,VALID,0,VALID,27.969,VALID,281,VALID,1.33125,
2012-01-17, 01:39:04,VALID,1001.21,VALID,0,VALID,70.7808,VALID,0,VALID,27.9885,VALID,285,VALID,0.698047,
2012-01-17, 01:40:04,VALID,1001.2,VALID,0,VALID,70.6663,VALID,0,VALID,28.008,VALID,297,VALID,1.13711,
2012-01-17, 01:41:04,VALID,1001.23,VALID,0,VALID,70.7808,VALID,0,VALID,28.047,VALID,297,VALID,0.846875,
2012-01-17, 01:42:04,VALID,1001.24,VALID,0,VALID,70.6663,VALID,0,VALID,28.0254,VALID,254,VALID,1.12188,
2012-01-17, 01:43:04,VALID,1001.23,VALID,0,VALID,70.4985,VALID,0,VALID,28.0665,VALID,282,VALID,2.03555,
2012-01-17, 01:44:04,VALID,1001.27,VALID,0,VALID,70.4756,VALID,0,VALID,28.047,VALID,330,VALID,0.812109,
2012-01-17, 01:45:04,VALID,1001.26,VALID,0,VALID,70.7502,VALID,0,VALID,28.0859,VALID,287,VALID,0.753906,
2012-01-17, 01:46:04,VALID,1001.29,VALID,0,VALID,71.1775,VALID,0,VALID,28.0665,VALID,280,VALID,0.464844,
2012-01-17, 01:47:04,VALID,1001.28,VALID,0,VALID,70.6892,VALID,0,VALID,28.0059,VALID,290,VALID,0.675391,
2012-01-17, 01:48:04,VALID,1001.29,VALID,0,VALID,71.1851,VALID,0,VALID,28.008,VALID,320,VALID,1.01367,
2012-01-17, 01:49:04,VALID,1001.32,VALID,0,VALID,71.0096,VALID,0,VALID,27.9474,VALID,296,VALID,0.901953,
2012-01-17, 01:50:04,VALID,1001.31,VALID,0,VALID,70.8189,VALID,0,VALID,27.969,VALID,277,VALID,1.76758,
2012-01-17, 01:51:04,VALID,1001.32,VALID,0,VALID,70.9333,VALID,0,VALID,27.9669,VALID,288,VALID,1.05508,
2012-01-17, 01:52:04,VALID,1001.3,VALID,0,VALID,70.9257,VALID,0,VALID,28.008,VALID,291,VALID,1.20234,
2012-01-17, 01:53:04,VALID,1001.26,VALID,0,VALID,70.7655,VALID,0,VALID,27.9885,VALID,297,VALID,1.30586,
2012-01-17, 01:54:04,VALID,1001.28,VALID,0,VALID,71.3987,VALID,0,VALID,27.9885,VALID,304,VALID,0.288281,
2012-01-17, 01:55:04,VALID,1001.25,VALID,0,VALID,70.8952,VALID,0,VALID,27.9885,VALID,300,VALID,0.846875,
2012-01-17, 01:56:04,VALID,1001.23,VALID,0,VALID,71.1241,VALID,0,VALID,27.969,VALID,296,VALID,1.19102,
2012-01-17, 01:57:04,VALID,1001.23,VALID,0,VALID,71.0173,VALID,0,VALID,27.969,VALID,282,VALID,1.86758,
2012-01-17, 01:58:04,VALID,1001.23,VALID,0,VALID,71.1775,VALID,0,VALID,27.969,VALID,295,VALID,0.932031,
2012-01-17, 01:59:04,VALID,1001.21,VALID,0,VALID,71.1698,VALID,0,VALID,27.969,VALID,331,VALID,0.7625,
2012-01-17, 02:00:04,VALID,1001.22,VALID,0,VALID,70.9333,VALID,0,VALID,27.9885,VALID,294,VALID,1.35938,
2012-01-17, 02:01:04,VALID,1001.19,VALID,0,VALID,71.0706,VALID,0,VALID,28.0275,VALID,281,VALID,1.35742,
2012-01-17, 02:02:04,VALID,1001.22,VALID,0,VALID,70.796,VALID,0,VALID,28.0881,VALID,297,VALID,1.12656,
2012-01-17, 02:03:04,VALID,1001.23,VALID,0,VALID,71.2614,VALID,0,VALID,28.0859,VALID,234,VALID,0.714844,
2012-01-17, 02:04:04,VALID,1001.2,VALID,0,VALID,71.1775,VALID,0,VALID,28.0859,VALID,291,VALID,0.890234,
2012-01-17, 02:05:04,VALID,1001.18,VALID,0,VALID,71.4445,VALID,0,VALID,28.1054,VALID,262,VALID,0.705078,
2012-01-17, 02:06:04,VALID,1001.18,VALID,0,VALID,71.3529,VALID,0,VALID,28.0859,VALID,284,VALID,1.23047,
2012-01-17, 02:07:04,VALID,1001.14,VALID,0,VALID,71.4139,VALID,0,VALID,28.1076,VALID,279,VALID,0.958203,
2012-01-17, 02:08:04,VALID,1001.13,VALID,0,VALID,71.3682,VALID,0,VALID,28.0859,VALID,282,VALID,1.55195,
2012-01-17, 02:09:04,VALID,1001.1,VALID,0,VALID,71.7038,VALID,0,VALID,28.0859,VALID,255,VALID,0.721484,
2012-01-17, 02:10:04,VALID,1001.09,VALID,0,VALID,71.6199,VALID,0,VALID,28.0859,VALID,293,VALID,1.21445,
2012-01-17, 02:11:04,VALID,1001.12,VALID,0,VALID,71.6352,VALID,0,VALID,28.0665,VALID,296,VALID,1.06016,
2012-01-17, 02:12:04,VALID,1001.07,VALID,0,VALID,71.1622,VALID,0,VALID,28.0665,VALID,287,VALID,1.34453,
2012-01-17, 02:13:04,VALID,1001.05,VALID,0,VALID,70.8113,VALID,0,VALID,28.0859,VALID,279,VALID,1.2668,
2012-01-17, 02:14:04,VALID,1001.06,VALID,0,VALID,70.3917,VALID,0,VALID,28.1076,VALID,281,VALID,1.20508,
2012-01-17, 02:15:04,VALID,1001.03,VALID,0,VALID,70.3154,VALID,0,VALID,28.1249,VALID,281,VALID,1.17852,
2012-01-17, 02:16:04,VALID,1001.02,VALID,0,VALID,70.2772,VALID,0,VALID,28.1249,VALID,310,VALID,0.923437,
2012-01-17, 02:17:04,VALID,1001.03,VALID,0,VALID,69.5983,VALID,0,VALID,28.1249,VALID,291,VALID,1.80859,
2012-01-17, 02:18:04,VALID,1001.03,VALID,0,VALID,69.316,VALID,0,VALID,28.1249,VALID,282,VALID,1.85,
2012-01-17, 02:19:04,VALID,1001.02,VALID,0,VALID,69.9263,VALID,0,VALID,28.1444,VALID,266,VALID,1.05742,
2012-01-17, 02:20:04,VALID,1001,VALID,0,VALID,70.0407,VALID,0,VALID,28.1249,VALID,277,VALID,1.63633,
2012-01-17, 02:21:04,VALID,1000.97,VALID,0,VALID,70.117,VALID,0,VALID,28.0859,VALID,285,VALID,2.12188,
2012-01-17, 02:22:04,VALID,1000.9,VALID,0,VALID,70.3459,VALID,0,VALID,28.0665,VALID,290,VALID,1.45313,
2012-01-17, 02:23:04,VALID,1000.92,VALID,0,VALID,70.5519,VALID,0,VALID,28.0665,VALID,285,VALID,0.835156,
2012-01-17, 02:24:04,VALID,1000.9,VALID,0,VALID,70.6816,VALID,0,VALID,28.047,VALID,257,VALID,0.941016,
2012-01-17, 02:25:04,VALID,1000.86,VALID,0,VALID,70.9638,VALID,0,VALID,28.008,VALID,301,VALID,0.746875,
2012-01-17, 02:26:04,VALID,1000.84,VALID,0,VALID,71.3377,VALID,0,VALID,27.969,VALID,308,VALID,1.03437,
2012-01-17, 02:27:04,VALID,1000.83,VALID,0,VALID,71.1698,VALID,0,VALID,27.93,VALID,300,VALID,1.9793,
2012-01-17, 02:28:04,VALID,1000.78,VALID,0,VALID,71.6352,VALID,0,VALID,27.9105,VALID,302,VALID,0.689062,
2012-01-17, 02:29:04,VALID,1000.8,VALID,0,VALID,71.6352,VALID,0,VALID,27.85,VALID,289,VALID,1.37266,
2012-01-17, 02:30:04,VALID,1000.78,VALID,0,VALID,71.7801,VALID,0,VALID,27.8521,VALID,285,VALID,1.00547,
2012-01-17, 02:31:04,VALID,1000.75,VALID,0,VALID,71.8717,VALID,0,VALID,27.7936,VALID,303,VALID,1.02109,
2012-01-17, 02:32:04,VALID,1000.7,VALID,0,VALID,72.1234,VALID,0,VALID,27.7936,VALID,275,VALID,0.698438,
2012-01-17, 02:33:04,VALID,1000.73,VALID,0,VALID,72.0777,VALID,0,VALID,27.7351,VALID,291,VALID,0.925391,
2012-01-17, 02:34:04,VALID,1000.7,VALID,0,VALID,72.5659,VALID,0,VALID,27.6962,VALID,295,VALID,0.532422,
2012-01-17, 02:35:04,VALID,1000.68,VALID,0,VALID,72.482,VALID,0,VALID,27.6767,VALID,302,VALID,0.436328,
2012-01-17, 02:36:04,VALID,1000.68,VALID,0,VALID,72.4744,VALID,0,VALID,27.6377,VALID,327,VALID,0.863281,
2012-01-17, 02:37:04,VALID,1000.65,VALID,0,VALID,72.7032,VALID,0,VALID,27.6182,VALID,307,VALID,0.589844,
2012-01-17, 02:38:04,VALID,1000.66,VALID,0,VALID,72.9245,VALID,0,VALID,27.5792,VALID,343,VALID,0.557422,
2012-01-17, 02:39:04,VALID,1000.66,VALID,0,VALID,72.7337,VALID,0,VALID,27.5598,VALID,287,VALID,1.18125,
2012-01-17, 02:40:04,VALID,1000.64,VALID,0,VALID,72.7719,VALID,0,VALID,27.5403,VALID,9,VALID,0.414453,
2012-01-17, 02:41:04,VALID,1000.62,VALID,0,VALID,72.8711,VALID,0,VALID,27.5208,VALID,286,VALID,0.435156,
2012-01-17, 02:42:04,VALID,1000.61,VALID,0,VALID,73.1152,VALID,0,VALID,27.5424,VALID,288,VALID,0.403125,
2012-01-17, 02:43:04,VALID,1000.62,VALID,0,VALID,73.1381,VALID,0,VALID,27.5013,VALID,271,VALID,1.4625,
2012-01-17, 02:44:04,VALID,1000.6,VALID,0,VALID,72.5812,VALID,0,VALID,27.4602,VALID,299,VALID,0.707812,
2012-01-17, 02:45:04,VALID,1000.59,VALID,0,VALID,72.543,VALID,0,VALID,27.4818,VALID,296,VALID,1.38516,
2012-01-17, 02:46:04,VALID,1000.56,VALID,0,VALID,72.6498,VALID,0,VALID,27.4818,VALID,281,VALID,0.676172,
2012-01-17, 02:47:04,VALID,1000.55,VALID,0,VALID,72.5812,VALID,0,VALID,27.4818,VALID,277,VALID,0.414063,
2012-01-17, 02:48:04,VALID,1000.58,VALID,0,VALID,72.5812,VALID,0,VALID,27.4623,VALID,288,VALID,1.64805,
2012-01-17, 02:49:04,VALID,1000.6,VALID,0,VALID,72.6117,VALID,0,VALID,27.4623,VALID,298,VALID,1.24531,
2012-01-17, 02:50:04,VALID,1000.59,VALID,0,VALID,73.1762,VALID,0,VALID,27.4623,VALID,290,VALID,0.452344,
2012-01-17, 02:51:04,VALID,1000.62,VALID,0,VALID,73.1533,VALID,0,VALID,27.4428,VALID,296,VALID,0.48125,
2012-01-17, 02:52:04,VALID,1000.59,VALID,0,VALID,73.2296,VALID,0,VALID,27.4428,VALID,345,VALID,0.519531,
2012-01-17, 02:53:04,VALID,1000.61,VALID,0,VALID,73.3517,VALID,0,VALID,27.4233,VALID,245,VALID,0.141016,
2012-01-17, 02:54:04,VALID,1000.63,VALID,0,VALID,73.5577,VALID,0,VALID,27.4039,VALID,299,VALID,0.384766,
2012-01-17, 02:55:04,VALID,1000.63,VALID,0,VALID,73.8018,VALID,0,VALID,27.3844,VALID,331,VALID,0.400781,
2012-01-17, 02:56:04,VALID,1000.65,VALID,0,VALID,73.6416,VALID,0,VALID,27.3433,VALID,336,VALID,0.648047,
2012-01-17, 02:57:04,VALID,1000.64,VALID,0,VALID,73.8247,VALID,0,VALID,27.3259,VALID,336,VALID,0.501562,
2012-01-17, 02:58:04,VALID,1000.61,VALID,0,VALID,73.6874,VALID,0,VALID,27.3064,VALID,287,VALID,0.538672,
2012-01-17, 02:59:04,VALID,1000.61,VALID,0,VALID,73.7484,VALID,0,VALID,27.3064,VALID,347,VALID,0.824219,
2012-01-17, 03:00:04,VALID,1000.6,VALID,0,VALID,73.9239,VALID,0,VALID,27.3064,VALID,326,VALID,0.411719,
2012-01-17, 03:01:04,VALID,1000.6,VALID,0,VALID,73.9315,VALID,0,VALID,27.2869,VALID,303,VALID,0.324219,
2012-01-17, 03:02:04,VALID,1000.58,VALID,0,VALID,73.7713,VALID,0,VALID,27.2675,VALID,339,VALID,0.720312,
2012-01-17, 03:03:04,VALID,1000.59,VALID,0,VALID,74.1069,VALID,0,VALID,27.2264,VALID,342,VALID,0.296484,
2012-01-17, 03:04:04,VALID,1000.57,VALID,0,VALID,74.2519,VALID,0,VALID,27.248,VALID,8,VALID,0.417188,
2012-01-17, 03:05:04,VALID,1000.57,VALID,0,VALID,74.1146,VALID,0,VALID,27.2285,VALID,320,VALID,0.565234,
2012-01-17, 03:06:04,VALID,1000.55,VALID,0,VALID,73.9773,VALID,0,VALID,27.2285,VALID,319,VALID,0.885547,
2012-01-17, 03:07:04,VALID,1000.59,VALID,0,VALID,74.3587,VALID,0,VALID,27.2285,VALID,274,VALID,0.697266,
2012-01-17, 03:08:04,VALID,1000.55,VALID,0,VALID,74.3129,VALID,0,VALID,27.209,VALID,277,VALID,0.379297,
2012-01-17, 03:09:04,VALID,1000.55,VALID,0,VALID,74.0688,VALID,0,VALID,27.2285,VALID,278,VALID,0.643359,
2012-01-17, 03:10:04,VALID,1000.56,VALID,0,VALID,73.6645,VALID,0.0815089,VALID,27.2264,VALID,289,VALID,1.20234,
2012-01-17, 03:11:04,VALID,1000.53,VALID,0,VALID,73.6111,VALID,0,VALID,27.2654,VALID,302,VALID,1.36914,
2012-01-17, 03:12:04,VALID,1000.54,VALID,0,VALID,73.7408,VALID,0.0815089,VALID,27.3064,VALID,349,VALID,0.737109,
2012-01-17, 03:13:04,VALID,1000.49,VALID,0,VALID,73.2144,VALID,0,VALID,27.3064,VALID,281,VALID,0.828906,
2012-01-17, 03:14:04,VALID,1000.48,VALID,0,VALID,72.7719,VALID,0,VALID,27.3064,VALID,286,VALID,1.9707,
2012-01-17, 03:15:04,VALID,1000.48,VALID,0,VALID,73.2144,VALID,0,VALID,27.3454,VALID,326,VALID,0.672656,
2012-01-17, 03:16:04,VALID,1000.48,VALID,0,VALID,72.7871,VALID,0,VALID,27.3259,VALID,292,VALID,1.38047,
2012-01-17, 03:17:04,VALID,1000.51,VALID,0,VALID,72.9321,VALID,0,VALID,27.3044,VALID,310,VALID,0.535937,
2012-01-17, 03:18:04,VALID,1000.48,VALID,0,VALID,73.0542,VALID,0,VALID,27.3259,VALID,290,VALID,0.61875,
2012-01-17, 03:19:04,VALID,1000.51,VALID,0,VALID,72.8177,VALID,0,VALID,27.3044,VALID,292,VALID,1.04414,
2012-01-17, 03:20:04,VALID,1000.49,VALID,0,VALID,72.7566,VALID,0,VALID,27.3259,VALID,274,VALID,1.09414,
2012-01-17, 03:21:04,VALID,1000.48,VALID,0,VALID,72.4667,VALID,0,VALID,27.3454,VALID,277,VALID,1.83555,
2012-01-17, 03:22:04,VALID,1000.5,VALID,0,VALID,72.8634,VALID,0,VALID,27.3649,VALID,301,VALID,0.576953,
2012-01-17, 03:23:04,VALID,1000.51,VALID,0,VALID,72.9016,VALID,0,VALID,27.3649,VALID,241,VALID,0.248437,
2012-01-17, 03:24:04,VALID,1000.5,VALID,0,VALID,72.9397,VALID,0,VALID,27.3628,VALID,273,VALID,0.49375,
2012-01-17, 03:25:04,VALID,1000.49,VALID,0,VALID,72.7185,VALID,0,VALID,27.3433,VALID,273,VALID,0.271875,
2012-01-17, 03:26:04,VALID,1000.49,VALID,0,VALID,72.7261,VALID,0,VALID,27.3433,VALID,269,VALID,0.433984,
2012-01-17, 03:27:04,VALID,1000.49,VALID,0,VALID,73.077,VALID,0,VALID,27.3649,VALID,275,VALID,0.604688,
2012-01-17, 03:28:04,VALID,1000.47,VALID,0,VALID,72.4667,VALID,0,VALID,27.3844,VALID,318,VALID,0.478906,
2012-01-17, 03:29:04,VALID,1000.49,VALID,0,VALID,72.749,VALID,0,VALID,27.3823,VALID,320,VALID,0.539453,
2012-01-17, 03:30:04,VALID,1000.44,VALID,0,VALID,72.7261,VALID,0,VALID,27.4039,VALID,346,VALID,0.347266,
2012-01-17, 03:31:04,VALID,1000.45,VALID,0,VALID,73.016,VALID,0,VALID,27.3844,VALID,311,VALID,0.673828,
2012-01-17, 03:32:04,VALID,1000.43,VALID,0,VALID,73.0313,VALID,0,VALID,27.3649,VALID,344,VALID,0.620313,
2012-01-17, 03:33:04,VALID,1000.47,VALID,0,VALID,73.1381,VALID,0,VALID,27.3433,VALID,344,VALID,0.347266,
2012-01-17, 03:34:04,VALID,1000.43,VALID,0,VALID,73.3364,VALID,0,VALID,27.3454,VALID,343,VALID,0.237109,
2012-01-17, 03:35:04,VALID,1000.45,VALID,0,VALID,73.6797,VALID,0,VALID,27.3238,VALID,343,VALID,0.301172,
2012-01-17, 03:36:04,VALID,1000.45,VALID,0,VALID,73.9925,VALID,0,VALID,27.2849,VALID,344,VALID,0.239063,
2012-01-17, 03:37:04,VALID,1000.41,VALID,0,VALID,73.8399,VALID,0,VALID,27.2849,VALID,344,VALID,0.16875,
2012-01-17, 03:38:04,VALID,1000.42,VALID,0,VALID,73.7102,VALID,0,VALID,27.2869,VALID,344,VALID,0.302734,
2012-01-17, 03:39:04,VALID,1000.41,VALID,0,VALID,73.9925,VALID,0,VALID,27.2869,VALID,344,VALID,0.714453,
2012-01-17, 03:40:04,VALID,1000.4,VALID,0,VALID,74.0078,VALID,0,VALID,27.2285,VALID,353,VALID,1.43672,
2012-01-17, 03:41:04,VALID,1000.41,VALID,0,VALID,74.4579,VALID,0,VALID,27.168,VALID,358,VALID,0.841406,
2012-01-17, 03:42:04,VALID,1000.43,VALID,0,VALID,74.5036,VALID,0,VALID,27.1895,VALID,348,VALID,1.34883,
2012-01-17, 03:43:04,VALID,1000.42,VALID,0,VALID,74.7096,VALID,0,VALID,27.1895,VALID,341,VALID,0.501953,
2012-01-17, 03:44:04,VALID,1000.44,VALID,0,VALID,74.8469,VALID,0,VALID,27.17,VALID,339,VALID,0.562891,
2012-01-17, 03:45:04,VALID,1000.43,VALID,0,VALID,75.854,VALID,0,VALID,27.1095,VALID,349,VALID,0.687109,